CZ-4 DEB, 27688

Orbit data source: Space-Track

CZ-4 DEB, 27688 is space debris in SSO originally from a launch on Thu, 14 Oct 1999 UTC launched from the Taiyaun Space Center, China (TSC). Debris objects in space refer to the collection of defunct objects orbiting the Earth. Examples of debris include non-operational satellites, rocket bodies, and fragments generated from explosions, collisions, or faulty payload assembly.

Loading next visibility...
Identifier
27688, 1999-057MU
Orbit
SSO
Country
Flag of CNCN / PRC
Related business
Manufacturer
Unknown
Mission
Spacecraft
Bus & Motor
Unknown
Mass
Unknown
Launch date (UTC)
1999-10-14 (26 years ago)
Launch vehicle
Unknown
Launch site
Taiyaun Space Center, China (TSC)
Object type
Payload
Rocket body
Debris
Shape & HBR
Unknown shape, 0.1 m
Radar Cross Section
Small (<0.1 m²)

Expand to show TLE details & history
Last TLE update: 20 hours ago

TLE from 20 hours ago
0 CZ-4 DEB
1 27688U 99057MU  25291.43545779  .00002898  00000-0  69931-3 0  9992
2 27688  98.5312 348.2287 0080721 264.7033 109.5913 14.52022769692102
Epoch: 2025-10-18T10:27Z
TLE epoch observation values (Epoch: 2025-10-18T10:27:03.553Z)
Latitude
14.9661°
Longitude
162.01153°
Altitude
740.926 km
Speed
7.475 km/s
True Right ascension
23h 03m 46s
True Declination
14° 52' 49"
Sunlit
Object was in full shadow at epoch
Visualization orbit readout
Latitude
Unknown
Longitude
Unknown
Altitude
Unknown
Speed
Unknown
Apparent Right ascension
Unknown
Apparent Declination
Unknown
Sunlit
N/A
Visualization observer readout
Local Sidereal Time
01:16:35
Azimuth
Unknown
Elevation
Unknown
Doppler factor
Unknown
Orbital elements
Apogee altitude
773.423 km
Perigee altitude
658.891 km
Semi-major axis
7,094.294 km
Eccentricity
0.00807
Inclination
98.5312°
RAAN
348.2287°
Arg. of periapsis
264.7033°
True anomaly
110.45977°
Mean anomaly
109.5913°
Eccentric anomaly
110.02583°
Mean motion
3.63228 °/min
Orbital period
99.11 mins
BSTAR
0.00069931
Loading maneuver chart data...
Computing Atmospheric mass density...

Documentation

Showing up to 5 results
|